Cloud_Cover
76 76 76 76 88 88 76 68 80 92 88 88 76 64 56 56 56 44 20 20 12 8 0 0 0 0 0 0 0 0 0 0 0 8 8 0 0 0 0 8 8 8 8 0 0 0 0 0 8 8 12 12 12 12 8 0 0 12 44 76 88 88 88 88 80 68 44 80 92 88 76 64 64 48 12 12 24 44 88 92 88 76 56 80 88 88
80 76 64 68 76 76 68 80 88 92 88 68 64 56 56 48 44 32 12 12 8 0 0 0 0 0 0 0 0 0 0 0 0 0 0 0 0 0 0 0 0 0 0 0 0 0 0 8 12 8 0 0 8 20 48 20 12 36 76 80 88 88 88 88 68 48 76 80 88 92 92 76 76 64 24 20 32 56 76 76 64 56 92 92 88 80
76 68 48 48 64 80 80 76 76 68 68 68 56 48 44 36 24 20 12 8 0 0 0 0 0 0 0 0 0 0 0 0 0 0 0 0 0 0 0 0 0 0 0 0 0 0 8 8 0 0 8 12 24 48 88 48 56 76 68 76 80 88 88 88 88 88 88 68 68 80 88 76 48 32 32 24 44 64 56 36 36 48 92 88 88 92
48 48 36 48 64 80 92 68 64 56 56 56 44 36 32 24 12 8 0 0 0 0 0 0 0 0 0 0 0 0 0 0 0 0 0 0 0 0 0 0 0 0 0 0 0 0 8 0 0 8 20 48 64 76 88 88 76 68 88 88 88 88 88 88 80 68 76 88 68 48 68 24 12 12 20 24 32 48 88 64 48 48 80 76 80 92
24 36 56 80 80 80 76 64 64 56 48 44 32 20 12 12 8 8 0 0 0 0 0 0 0 0 0 0 0 0 0 0 0 0 0 0 0 0 0 0 0 0 0 0 0 0 0 0 0 12 48 76 88 80 76 80 64 56 88 88 88 88 88 88 80 76 64 68 48 36 48 24 24 44 56 36 32 48 88 80 64 56 76 76 88 92
20 32 76 76 68 68 64 64 48 44 36 32 20 8 8 8 0 0 0 0 0 0 0 0 0 0 8 8 8 0 0 0 0 0 0 0 0 0 0 0 0 0 0 0 0 0 0 0 0 12 44 64 68 64 44 44 64 88 88 88 88 88 88 88 88 88 88 56 32 36 64 24 36 68 88 44 24 44 92 76 68 68 92 92 92 92
24 44 68 68 68 68 68 44 32 24 24 24 20 8 8 0 0 0 0 0 0 0 0 0 0 8 8 8 12 20 12 8 8 0 0 0 0 0 0 0 0 0 0 0 0 0 0 0 0 0 8 20 24 24 12 20 48 76 88 88 88 88 88 88 88 88 88 56 44 32 24 20 36 56 80 44 32 36 64 80 80 76 92 92 80 76
48 56 68 64 64 56 56 24 20 20 20 20 12 8 8 0 0 0 0 0 0 0 12 8 8 8 8 0 8 20 24 8 0 0 0 0 0 0 0 0 0 0 0 0 0 0 0 0 0 0 8 8 8 8 8 32 56 76 88 88 88 80 48 80 80 76 88 76 64 56 36 24 36 56 48 56 44 36 44 80 80 76 92 76 76 68
68 64 56 48 48 44 36 24 20 12 12 20 12 8 0 0 0 0 0 0 8 8 20 20 20 20 8 0 0 0 12 0 0 0 0 0 0 0 0 0 0 0 0 0 0 0 0 0 0 0 0 0 0 0 0 12 36 68 88 88 88 68 12 36 56 76 88 88 88 88 76 32 24 24 32 44 56 64 48 80 92 92 92 80 80 88
64 64 48 44 36 32 32 32 24 20 12 12 8 0 0 0 0 8 12 12 8 8 8 8 12 8 0 0 0 0 0 0 0 0 0 0 0 0 0 0 0 0 0 0 0 0 0 0 0 0 0 0 0 0 0 32 56 76 88 88 88 80 56 24 32 44 48 48 44 36 44 24 20 24 24 24 44 56 48 80 92 88 68 88 88 80
64 64 48 44 36 24 32 24 24 20 12 8 0 0 0 0 8 12 8 8 0 0 0 0 0 0 0 0 0 0 0 0 0 0 0 0 0 0 0 0 0 0 0 0 0 0 0 0 0 0 0 0 0 12 48 76 88 88 88 88 88 88 88 32 12 12 12 12 12 8 12 12 20 24 24 32 36 48 80 88 88 76 32 68 80 68
56 48 44 32 32 32 32 20 12 8 0 0 0 0 8 8 8 8 0 0 0 0 0 0 0 0 0 0 0 0 0 0 0 0 0 0 0 0 0 0 0 0 0 0 0 0 0 0 0 0 0 0 0 8 24 56 80 80 56 80 88 88 88 68 44 36 64 24 24 32 8 12 20 20 24 32 36 48 76 68 76 68 20 32 36 36
36 36 32 32 32 32 32 20 12 0 0 0 8 12 20 8 0 0 0 0 0 0 0 0 0 0 0 0 0 0 0 0 0 0 0 0 0 0 0 0 0 0 0 0 0 0 0 0 0 0 0 0 0 0 0 64 80 80 76 88 88 88 88 88 80 76 88 76 44 20 12 12 44 64 32 36 44 48 64 44 36 32 20 20 20 32
36 32 36 32 24 24 12 8 0 0 0 0 8 8 12 0 0 0 0 0 0 0 0 0 0 0 0 0 0 0 0 0 0 0 0 0 0 0 0 0 0 0 0 0 0 0 0 0 0 0 0 0 0 0 20 68 88 88 88 88 88 88 88 88 88 88 88 88 48 12 12 12 20 36 64 44 44 48 48 24 20 20 20 12 20 32
44 44 36 32 24 20 0 0 0 0 0 0 0 0 0 0 0 0 0 0 0 0 0 0 0 0 0 0 0 0 0 0 0 0 0 0 0 0 0 0 0 0 0 0 0 0 0 0 0 0 0 0 0 0 8 64 88 88 88 88 88 88 88 88 88 88 88 88 48 12 12 12 12 24 36 32 32 36 36 20 44 64 12 24 20 12
36 36 36 24 20 12 0 0 0 0 8 0 0 0 0 0 0 0 0 0 0 0 0 0 0 0 0 0 0 0 0 0 0 0 0 0 0 0 0 0 0 0 0 0 0 0 0 0 0 0 0 0 0 0 8 68 88 88 88 88 88 88 88 88 88 88 88 88 48 8 12 12 12 20 20 24 24 20 20 24 32 32 12 20 20 12
36 32 20 12 8 0 0 0 0 0 0 0 0 0 0 0 0 0 0 0 0 0 0 0 0 0 0 0 0 0 0 0 0 0 0 0 0 0 0 0 0 0 0 0 0 0 0 0 0 0 0 0 0 0 0 64 88 88 88 88 88 88 88 88 88 88 88 88 44 8 12 12 12 12 20 20 20 12 12 12 12 12 8 12 44 68
36 24 8 0 0 0 0 0 0 0 0 0 0 0 0 0 0 0 0 0 0 0 0 0 0 0 0 0 0 0 0 0 0 0 0 0 0 0 0 0 0 0 0 0 0 0 0 0 0 0 0 0 0 0 0 64 88 88 88 88 88 88 88 88 88 88 88 88 44 8 12 12 12 20 24 24 24 20 20 20 20 20 12 20 24 44
32 12 0 0 0 0 0 0 0 0 0 0 0 0 0 0 0 0 0 0 0 0 0 0 0 0 0 0 0 0 0 0 0 0 0 0 0 0 0 0 0 0 0 0 0 0 0 0 0 0 0 0 0 0 0 64 80 76 88 88 88 88 88 88 88 88 88 88 88 68 8 12 12 20 24 20 20 20 20 24 32 36 56 24 20 24
20 0 0 0 0 0 0 0 0 0 0 0 0 0 0 0 0 0 0 0 0 0 0 0 0 0 0 0 0 0 0 0 0 0 0 0 0 0 0 0 0 0 0 0 0 0 0 0 0 0 0 0 0 0 0 0 36 88 88 88 88 88 88 88 88 88 88 80 80 76 32 12 12 12 12 20 24 48 88 32 12 12 20 32 32 32
0 0 0 0 0 0 0 0 0 0 0 0 0 0 0 0 0 0 0 0 0 0 0 0 0 0 0 0 0 0 0 0 0 0 0 0 0 0 0 0 0 0 0 0 0 0 0 0 0 0 0 0 0 0 0 0 12 44 88 88 88 88 88 88 88 88 88 88 88 88 88 48 64 76 44 20 12 20 32 12 12 12 12 24 32 32
0 0 0 0 0 0 0 0 0 0 0 0 0 0 0 0 0 0 0 0 0 0 0 0 0 0 0 0 0 0 0 0 0 0 0 0 0 0 0 0 0 0 0 0 0 0 0 0 0 0 0 0 0 0 0 0 12 36 76 76 80 88 88 88 88 88 88 88 88 88 88 88 88 88 88 32 12 20 32 20 12 12 20 56 48 24
0 0 0 0 0 0 0 0 0 0 0 0 0 0 0 0 0 0 0 0 0 0 0 0 0 0 0 0 0 0 0 0 0 0 0 0 0 0 0 0 0 0 0 0 0 0 0 0 0 0 0 0 0 0 0 0 0 0 0 0 36 76 88 80 80 80 88 88 88 88 88 88 88 88 88 44 24 20 24 20 12 20 36 32 32 24
0 0 0 0 0 0 0 0 0 0 0 0 0 0 0 0 0 0 0 0 0 0 0 0 0 0 0 0 0 0 0 0 0 0 0 0 0 0 0 0 0 0 0 0 0 0 0 0 0 0 0 0 0 0 0 0 0 0 0 0 0 20 68 48 56 76 88 88 88 88 88 88 88 88 88 88 56 24 24 12 12 12 12 20 20 32
0 0 0 0 0 0 0 0 0 0 0 0 0 0 0 0 0 0 0 0 0 0 0 0 0 0 0 0 0 0 0 0 0 0 0 0 0 0 0 0 0 0 0 0 0 0 0 0 0 0 0 0 0 0 0 0 0 0 0 0 0 0 0 0 32 68 76 80 88 88 88 88 88 88 88 88 76 56 36 12 8 8 12 44 68 80
0 0 0 0 0 0 0 0 0 0 0 0 0 0 0 0 0 0 0 0 0 0 0 0 0 0 0 0 0 0 0 0 0 0 8 0 0 0 0 0 0 0 0 0 0 0 0 0 0 0 0 0 0 0 0 0 0 0 0 0 0 0 0 0 0 8 32 68 80 88 80 88 88 88 88 88 88 88 88 44 24 20 20 24 56 88
0 0 0 0 0 0 0 0 0 0 0 0 0 0 0 0 0 0 0 0 0 0 0 0 0 0 0 0 0 0 0 0 0 0 12 8 0 0 0 0 0 0 0 0 0 0 0 0 0 0 0 0 0 0 0 0 0 0 0 0 0 0 0 0 0 0 12 68 88 88 88 88 88 88 88 76 80 88 88 76 68 48 12 68 88 88
0 0 0 0 0 0 0 0 0 0 0 0 0 0 0 0 0 0 0 0 0 0 0 0 0 0 0 0 0 0 0 0 0 0 0 8 0 0 0 0 0 0 0 0 0 0 0 0 0 0 0 0 0 0 0 0 0 0 0 0 0 0 0 0 0 0 8 44 64 64 56 68 76 88 88 68 68 80 88 88 88 76 44 76 88 80
0 0 0 0 0 0 0 0 0 0 0 0 0 0 0 0 0 0 0 0 0 0 0 0 0 0 0 0 0 0 0 0 0 0 8 0 0 0 0 0 0 0 0 0 0 0 0 0 0 0 0 0 0 0 0 0 0 0 0 0 0 0 0 0 0 0 0 0 8 20 8 32 64 80 68 80 88 88 88 88 88 88 80 88 88 80
0 0 0 0 0 0 0 0 0 0 0 0 0 0 0 0 0 0 0 0 0 0 0 0 0 0 0 0 0 0 0 0 0 0 12 12 8 0 0 12 8 0 0 24 12 0 0 0 0 0 0 0 0 0 0 0 0 0 0 0 0 0 0 0 0 0 0 0 0 0 0 20 36 48 24 44 48 48 48 64 76 88 88 88 88 80
0 0 0 0 0 0 0 0 0 0 0 0 0 0 0 0 0 0 0 0 0 0 0 0 0 0 0 0 0 0 0 0 0 0 0 36 44 32 12 32 32 20 8 64 56 24 0 0 0 0 0 0 0 0 0 0 0 0 0 0 0 0 0 0 0 0 0 0 0 0 0 0 8 8 0 8 8 8 0 20 44 68 88 88 88 88
0 0 0 0 0 0 0 0 0 0 0 0 0 0 0 0 0 0 0 0 0 0 0 0 0 0 0 0 0 0 0 0 0 8 32 64 76 64 24 48 48 44 44 68 76 64 36 8 0 0 0 0 0 0 0 0 0 0 0 0 0 0 0 0 0 0 0 0 0 0 0 0 0 0 0 0 0 0 0 0 12 36 88 88 88 88
0 0 0 0 0 0 0 0 0 0 0 0 0 0 0 0 0 0 0 0 0 0 0 0 0 0 0 0 0 0 0 0 0 8 32 64 76 68 56 68 56 44 48 68 76 76 76 20 0 0 0 0 0 0 0 0 0 0 0 0 0 0 0 0 0 0 0 0 0 0 0 0 0 0 0 0 0 0 0 0 0 20 68 80 88 88
0 0 0 0 0 0 0 0 0 0 0 0 0 0 0 0 0 0 0 0 0 0 0 0 0 0 0 0 0 0 0 0 0 12 56 68 76 76 76 76 68 64 64 68 76 76 76 20 0 0 0 0 0 0 0 0 0 0 0 0 0 0 0 0 0 0 0 0 0 0 0 0 0 0 0 0 0 0 0 0 0 12 48 76 88 88
0 0 0 0 0 0 0 0 0 0 0 0 0 0 0 0 0 0 0 0 0 0 0 0 0 0 0 0 0 0 0 0 0 20 80 80 76 76 76 76 76 76 76 76 76 76 76 20 0 0 0 0 0 0 0 0 0 0 0 0 0 0 0 0 0 0 0 0 0 0 0 0 0 0 0 0 0 0 0 0 0 0 12 68 88 88
0 0 0 0 0 0 0 0 0 0 0 0 0 0 0 0 0 0 0 0 0 0 0 0 0 0 0 0 0 0 0 0 8 24 80 80 76 76 76 76 76 76 76 76 76 76 76 20 0 0 0 0 0 0 0 0 0 0 0 0 0 0 0 0 0 0 0 0 0 0 0 12 8 0 0 0 0 0 8 0 0 0 0 48 76 88
0 0 0 0 0 0 0 0 0 0 0 0 0 0 0 0 0 0 0 0 0 0 0 0 0 0 0 0 0 0 0 0 0 20 64 76 80 80 76 76 76 76 76 76 76 76 76 56 48 32 0 0 0 0 0 0 0 0 0 0 0 0 0 0 0 0 0 0 0 8 0 20 12 0 0 8 0 0 8 20 20 12 0 24 32 44
0 0 0 0 0 0 0 0 0 0 0 0 0 0 0 0 0 0 0 0 0 0 0 0 0 0 0 0 0 0 0 0 0 12 56 76 80 80 80 80 76 76 80 80 76 76 76 76 68 48 0 0 0 0 0 0 0 0 0 0 0 0 0 0 0 0 0 0 0 0 0 8 0 0 0 0 8 8 12 12 8 8 20 20 20 24
0 0 0 0 0 0 0 0 0 0 0 0 0 0 0 0 0 0 0 0 0 0 0 0 0 0 0 0 0 0 0 0 0 20 76 76 76 80 80 80 76 80 80 80 80 76 76 76 68 68 56 12 0 0 0 0 0 0 0 0 0 0 0 0 0 0 0 0 0 0 0 0 0 0 8 20 20 12 8 32 32 24 24 24 24 24
0 0 0 0 0 0 0 0 0 0 0 0 0 0 0 0 0 0 0 0 0 0 0 0 0 0 0 0 0 0 0 0 0 0 12 8 8 8 8 64 80 80 80 80 80 80 76 76 76 76 76 64 36 8 0 0 0 0 0 0 0 0 0 0 0 0 0 0 0 0 0 0 8 12 24 44 56 56 48 12 8 20 56 48 44 44
0 0 0 0 0 0 0 0 0 0 0 0 0 0 0 0 0 0 0 0 0 0 0 0 0 0 0 0 0 0 0 0 0 0 0 0 0 0 8 64 80 80 80 80 80 80 80 76 76 76 76 76 36 0 0 0 0 0 0 0 0 0 0 0 0 0 0 0 0 0 0 20 24 12 0 12 20 32 56 56 32 12 32 48 68 80
0 0 0 0 0 0 0 0 0 0 0 0 0 0 0 0 0 0 0 0 0 0 0 0 0 0 0 0 0 0 0 0 0 0 0 0 0 8 44 68 80 80 80 80 80 80 80 76 76 76 80 76 76 56 0 0 0 0 0 0 0 0 0 0 0 0 0 0 0 0 0 0 0 12 32 24 20 24 48 56 32 12 20 24 20 20
0 0 0 0 0 0 0 0 0 0 0 0 0 0 0 0 0 0 0 0 0 0 0 0 0 0 0 0 0 0 0 0 0 0 0 0 0 0 0 64 88 88 80 80 80 80 80 80 80 76 76 76 80 56 0 0 0 0 0 0 0 0 0 0 0 0 0 0 0 8 20 32 32 24 24 32 24 20 12 12 12 12 12 20 24 24
0 0 0 0 0 0 0 0 0 0 0 0 0 0 0 0 0 0 0 0 0 0 0 0 0 0 0 0 0 0 0 0 0 0 0 0 0 20 80 88 88 88 88 80 80 80 80 80 48 24 24 56 44 20 0 0 0 0 0 0 0 0 0 0 0 0 0 0 0 0 0 32 56 68 64 48 36 24 24 12 8 8 8 8 12 20
0 0 0 0 0 0 0 0 0 0 0 0 0 0 0 0 0 0 0 0 0 0 0 0 0 0 0 0 0 0 0 0 0 0 0 0 0 20 76 76 80 88 88 80 80 80 76 64 24 0 0 0 0 0 0 0 0 0 0 0 0 0 0 0 0 0 0 0 0 0 0 32 64 68 64 24 12 20 12 12 12 8 8 8 8 12
0 0 0 0 0 0 0 0 0 0 0 0 0 0 0 0 0 0 0 0 0 0 0 8 0 0 0 0 0 0 0 0 0 0 0 0 0 0 0 12 44 76 80 80 76 76 76 68 32 0 0 0 0 0 0 0 0 0 0 0 0 0 0 0 0 0 0 0 0 8 0 36 68 88 80 48 44 48 32 36 32 20 8 24 24 32
0 0 0 0 0 0 0 0 0 0 0 0 0 0 0 0 0 0 0 0 0 0 0 0 0 0 0 0 0 0 0 0 0 0 0 0 0 0 0 0 0 12 36 56 32 0 0 0 0 0 0 0 0 0 0 0 0 0 0 0 0 0 0 0 0 8 8 8 32 56 44 76 88 88 88 76 76 76 64 68 68 56 36 56 56 56
0 0 0 0 0 0 0 0 0 0 0 0 0 0 0 0 0 0 0 0 0 0 0 0 0 0 0 0 0 0 0 0 0 0 0 0 0 0 0 0 0 0 0 0 0 0 0 0 0 0 0 0 0 0 0 0 0 0 0 0 0 0 8 8 12 20 20 24 56 88 88 88 88 92 92 92 92 92 88 88 88 88 80 80 76 68
0 0 0 0 0 0 0 0 0 0 0 0 0 0 0 0 0 0 0 0 0 0 0 0 0 0 0 0 0 0 0 0 0 0 0 0 0 0 0 8 8 8 8 0 0 0 0 0 0 0 0 0 0 0 0 0 0 0 0 0 0 0 0 8 20 36 48 56 76 92 92 92 92 92 92 92 92 80 64 76 80 80 92 88 80 76
0 0 0 0 0 0 0 0 0 0 0 0 0 0 0 0 0 0 0 0 0 0 0 0 0 0 0 0 0 0 0 0 0 0 0 0 0 8 24 44 24 8 0 0 0 0 0 0 0 0 0 0 0 0 0 0 0 0 0 0 0 0 0 12 32 48 64 80 92 92 92 92 92 92 92 92 88 88 68 88 92 92 92 92 92 88
0 0 0 0 0 0 0 0 0 0 0 0 0 0 0 0 0 0 0 0 0 0 0 0 0 0 0 0 0 0 0 0 0 0 0 12 24 44 80 80 64 36 24 8 0 0 0 0 0 0 0 0 0 0 0 0 8 8 0 0 8 8 8 20 44 68 88 88 88 88 88 88 88 88 88 88 88 88 92 92 92 92 92 92 92 92